Location: Most
(50.5330°N, 13.6500°E)
Time: 05:54:33
(UTC+02:00)

ISS - Visible Passes

Search period start: 18 May 2021 00:00
Search period end: 28 May 2021 00:00
Orbit: 417 x 422 km, 51.6° (Epoch: 18 May)

Date Brightness Start Highest point End Pass type
(mag) Time Alt. Az. Time Alt. Az. Time Alt. Az.
18 May -3.9 01:19:31 10° WNW 01:22:53 87° SW 01:22:53 87° SW visible
18 May -3.7 22:55:07 10° W 22:58:30 81° N 23:01:53 10° ENE visible
19 May -3.7 00:32:02 10° WNW 00:35:25 80° N 00:36:28 42° E visible
19 May -1.3 02:08:57 10° W 02:09:22 13° W 02:09:22 13° W visible
19 May -3.8 22:07:39 10° WSW 22:11:01 86° SSE 22:14:24 10° ENE visible
19 May -3.6 23:44:34 10° W 23:47:56 73° N 23:50:16 18° E visible
20 May -2.3 01:21:26 10° WNW 01:23:12 27° W 01:23:12 27° W visible
20 May -3.5 22:57:04 10° W 23:00:26 70° N 23:03:48 10° E visible
21 May -3.8 00:33:56 10° WNW 00:37:06 68° SW 00:37:06 68° SW visible
21 May -3.5 22:09:33 10° W 22:12:55 73° N 22:16:17 10° E visible
21 May -3.9 23:46:27 10° WNW 23:49:51 87° S 23:51:03 37° ESE visible
22 May -1.3 01:23:29 10° W 01:23:59 13° W 01:23:59 13° W visible
22 May -3.7 22:58:58 10° WNW 23:02:21 80° N 23:05:02 15° E visible
23 May -2.5 00:35:52 10° W 00:37:58 29° WSW 00:37:58 29° WSW visible
23 May -3.5 22:11:28 10° W 22:14:51 73° N 22:18:13 10° E visible
23 May -3.6 23:48:20 10° WNW 23:51:38 52° SSW 23:51:59 50° S visible
24 May -3.8 23:00:50 10° WNW 23:04:12 70° SSW 23:06:01 25° ESE visible
25 May -1.4 00:38:08 10° W 00:38:57 14° WSW 00:38:57 14° WSW visible
25 May -3.8 22:13:20 10° WNW 22:16:43 87° SSW 22:20:04 10° ESE visible
25 May -2.5 23:50:22 10° W 23:53:00 26° SW 23:53:00 26° SW visible
26 May -3.1 23:02:44 10° W 23:05:54 38° SSW 23:07:05 27° SSE visible
27 May -3.5 22:15:12 10° WNW 22:18:30 52° SSW 22:21:12 14° SE visible
27 May -1.4 23:53:07 10° WSW 23:54:09 12° SW 23:54:09 12° SW visible
